Location: Unspecified
(0.0000°N, 0.0000°E)
Time: 18:06:37
(UTC+00:00)

Vanguard 1 Rocket - Pass Details

Date: 16 April 2026
Orbit: 655 x 4212 km, 34.3° (Epoch: 17 May)

Event Time Altitude Azimuth Distance (km) Brightness Sun altitude
Rises 18:24:21 0° 235° (SW) 5,791 12.2 -6.0°
Reaches altitude 10° 18:27:25 10° 235° (SW) 5,145 11.9 -6.8°
Maximum altitude 18:44:39 85° 322° (NW) 3,672 10.4 -11.0°
Drops below altitude 10° 19:11:15 10° 50° (NE) 7,355 11.6 -17.6°
Sets 19:16:47 0° 51° (NE) 8,241 11.9 -18.9°
